Printer-friendly version
Follow the MPC on Twitter Follow the MPC on Facebook The MPC blog
Minor Planet Center

MPEC 2007-V23 : 2007 VH3

The following Minor Planet Electronic Circular may be linked-to from your own Web pages, but must not otherwise be redistributed electronically.

A form allowing access to any MPEC is at the bottom of this page.


Read MPEC 2007-V22 Read MPEC 2007-V24


M.P.E.C. 2007-V23                                Issued 2007 Nov. 4, 18:47 UT

     The Minor Planet Electronic Circulars contain information on unusual
         minor planets and routine data on comets.  They are published
   on behalf of Commission 20 of the International Astronomical Union by the
          Minor Planet Center, Smithsonian Astrophysical Observatory,
                          Cambridge, MA 02138, U.S.A.

             Prepared using the Tamkin Foundation Computer Network

                              MPC@CFA.HARVARD.EDU
          URL http://www.cfa.harvard.edu/iau/mpc.html  ISSN 1523-6714

                                   2007 VH3

Observations:
     K07V03H* C2007 11 02.41266 04 05 37.57 +09 54 42.2          21.0 V EV023G96
     K07V03H  C2007 11 02.42096 04 05 37.93 +09 54 38.7          21.3 V EV023G96
     K07V03H  C2007 11 02.42927 04 05 38.29 +09 54 37.0          22.2 V EV023G96
     K07V03H  C2007 11 02.43763 04 05 38.58 +09 54 34.3          22.0 V EV023G96
     K07V03H  C2007 11 03.40941 04 06 25.66 +09 49 32.3          21.3 V EV023G96
     K07V03H  C2007 11 03.41794 04 06 26.02 +09 49 29.7          21.4 V EV023G96
     K07V03H  C2007 11 03.42645 04 06 26.38 +09 49 26.7          21.2 V EV023G96
     K07V03H  C2007 11 03.43495 04 06 26.71 +09 49 23.8          21.6 V EV023G96
     K07V03H  C2007 11 04.36754 04 07 11.36 +09 44 33.0          20.9 V EV023G96
     K07V03H  C2007 11 04.40867 04 07 12.92 +09 44 19.7          21.5 V EV023G96
     K07V03H  C2007 11 04.42029 04 07 13.37 +09 44 16.1          21.3 V EV023G96

Observer details:
G96 Mt. Lemmon Survey.  Observer A. Boattini.  Measurers E. C. Beshore,
    A. Boattini, G. J. Garradd, A. R. Gibbs, A. D. Grauer, R. E. Hill,
    R. A. Kowalski, S. M. Larson, R. H. McNaught.  1.5-m reflector + CCD.

Orbital elements:
2007 VH3                                                 Earth MOID = 0.1495 AU
Epoch 2007 Oct. 27.0 TT = JDT 2454400.5                 MPC
M 336.35003              (2000.0)            P               Q
n   0.31972888     Peri.  342.34262     -0.25563624     -0.96573503
a   2.1181082      Node   122.44728     +0.89327754     -0.25366637
e   0.4659011      Incl.    3.04231     +0.36973686     -0.05485630
P   3.08           H   22.1           G   0.15           U   9
Residuals in seconds of arc
071102 G96  0.2-  0.2+    071103 G96  0.4-  0.1+    071104 G96  0.1+  0.1+
071102 G96  0.1+  0.7-    071103 G96  0.0   0.3+    071104 G96  0.1-  0.2-
071102 G96  0.4+  0.2+    071103 G96  0.3+  0.0     071104 G96  0.1-  0.0
071102 G96  0.4-  0.2+    071103 G96  0.2+  0.2-

Ephemeris:
2007 VH3                 a,e,i = 2.12, 0.47, 3                   q = 1.1313
Date    TT    R. A. (2000) Decl.     Delta      r     Elong.  Phase     V
2007 10 27    04 00.08   +10 26.7    0.419    1.376   151.4    20.3    21.9
2007 11 06    04 08.44   +09 36.2    0.349    1.322   158.2    16.2    21.3
2007 11 16    04 15.42   +08 46.9    0.292    1.272   164.0    12.4    20.7
2007 11 26    04 22.08   +08 15.5    0.246    1.228   166.8    10.6    20.2
2007 12 06    04 30.10   +08 22.3    0.211    1.191   165.3    12.1    19.8
2007 12 16    04 41.85   +09 29.9    0.185    1.162   161.8    15.4    19.6
2007 12 26    05 00.16   +11 51.1    0.168    1.142   158.6    18.3    19.5
2008 01 05    05 26.61   +15 16.5    0.160    1.132   156.7    20.1    19.4
2008 01 15    06 00.86   +19 08.2    0.162    1.133   155.8    20.9    19.4
2008 01 25    06 39.97   +22 28.3    0.175    1.145   155.0    21.3    19.6
2008 02 04    07 19.00   +24 35.8    0.199    1.167   153.4    22.2    20.0
2008 02 14    07 54.46   +25 23.9    0.235    1.198   150.8    23.7    20.5
2008 02 24    08 25.16   +25 08.4    0.282    1.237   147.5    25.5    21.0
2008 03 05    08 51.39   +24 10.4    0.341    1.282   143.5    27.4    21.5

Gareth V. Williams           (C) Copyright 2007 MPC           M.P.E.C. 2007-V23

Read MPEC 2007-V22 Read MPEC 2007-V24


MPEC number:

Enter an MPEC number in one of the following forms:

  • 1997-B01 (the full form)
  • J97B01 (the packed version of the full form)
  • B01 (the abbreviated form)

Valid HTML 4.01!